Year,Month,Day,Hour,Minute,Value (Times are PST for temperature in C)
2014,08,19,00,00,19.20
2014,08,19,00,01,19.10
2014,08,19,00,02,19.10
2014,08,19,00,03,19.10
2014,08,19,00,04,19.10
2014,08,19,00,05,19.10
2014,08,19,00,06,19.10
2014,08,19,00,07,19.10
2014,08,19,00,08,19.10
2014,08,19,00,09,19.00
2014,08,19,00,10,19.00
2014,08,19,00,11,19.00
2014,08,19,00,12,19.00
2014,08,19,00,13,19.00
2014,08,19,00,14,18.90
2014,08,19,00,15,18.90
2014,08,19,00,16,18.90
2014,08,19,00,17,18.90
2014,08,19,00,18,18.80
2014,08,19,00,19,18.80
2014,08,19,00,20,18.80
2014,08,19,00,21,18.80
2014,08,19,00,22,18.70
2014,08,19,00,23,18.70
2014,08,19,00,24,18.70
2014,08,19,00,25,18.60
2014,08,19,00,26,18.60
2014,08,19,00,27,18.50
2014,08,19,00,28,18.50
2014,08,19,00,29,18.40
2014,08,19,00,30,18.40
2014,08,19,00,31,18.40
2014,08,19,00,32,18.30
2014,08,19,00,33,18.30
2014,08,19,00,34,18.30
2014,08,19,00,35,18.30
2014,08,19,00,36,18.30
2014,08,19,00,37,18.30
2014,08,19,00,38,18.20
2014,08,19,00,39,18.20
2014,08,19,00,40,18.20
2014,08,19,00,41,18.20
2014,08,19,00,42,18.20
2014,08,19,00,43,18.20
2014,08,19,00,44,18.20
2014,08,19,00,45,18.20
2014,08,19,00,46,18.20
2014,08,19,00,47,18.20
2014,08,19,00,48,18.20
2014,08,19,00,49,18.20
2014,08,19,00,50,18.20
2014,08,19,00,51,18.20
2014,08,19,00,52,18.20
2014,08,19,00,53,18.20
2014,08,19,00,54,18.20
2014,08,19,00,55,18.20
2014,08,19,00,56,18.10
2014,08,19,00,57,18.10
2014,08,19,00,58,18.10
2014,08,19,00,59,18.10
2014,08,19,01,00,18.10
2014,08,19,01,01,18.10
2014,08,19,01,02,18.10
2014,08,19,01,03,18.10
2014,08,19,01,04,18.10
2014,08,19,01,05,18.10
2014,08,19,01,06,18.10
2014,08,19,01,07,18.10
2014,08,19,01,08,18.10
2014,08,19,01,09,18.10
2014,08,19,01,10,18.10
2014,08,19,01,11,18.10
2014,08,19,01,12,18.00
2014,08,19,01,13,18.00
2014,08,19,01,14,18.00
2014,08,19,01,15,18.00
2014,08,19,01,16,17.90
2014,08,19,01,17,17.90
2014,08,19,01,18,17.90
2014,08,19,01,19,17.90
2014,08,19,01,20,17.80
2014,08,19,01,21,17.80
2014,08,19,01,22,17.80
2014,08,19,01,23,17.80
2014,08,19,01,24,17.80
2014,08,19,01,25,17.80
2014,08,19,01,26,17.80
2014,08,19,01,27,17.80
2014,08,19,01,28,17.70
2014,08,19,01,29,17.70
2014,08,19,01,30,17.70
2014,08,19,01,31,17.70
2014,08,19,01,32,17.70
2014,08,19,01,33,17.70
2014,08,19,01,34,17.70
2014,08,19,01,35,17.70
2014,08,19,01,36,17.70
2014,08,19,01,37,17.70
2014,08,19,01,38,17.60
2014,08,19,01,39,17.60
2014,08,19,01,40,17.60
2014,08,19,01,41,17.60
2014,08,19,01,42,17.60
2014,08,19,01,43,17.60
2014,08,19,01,44,17.60
2014,08,19,01,45,17.50
2014,08,19,01,46,17.50
2014,08,19,01,47,17.50
2014,08,19,01,48,17.50
2014,08,19,01,49,17.50
2014,08,19,01,50,17.50
2014,08,19,01,51,17.40
2014,08,19,01,52,17.40
2014,08,19,01,53,17.40
2014,08,19,01,54,17.40
2014,08,19,01,55,17.40
2014,08,19,01,56,17.40
2014,08,19,01,57,17.40
2014,08,19,01,58,17.40
2014,08,19,01,59,17.40
2014,08,19,02,00,17.40
2014,08,19,02,01,17.40
2014,08,19,02,02,17.40
2014,08,19,02,03,17.40
2014,08,19,02,04,17.40
2014,08,19,02,05,17.40
2014,08,19,02,06,17.40
2014,08,19,02,07,17.30
2014,08,19,02,08,17.30
2014,08,19,02,09,17.30
2014,08,19,02,10,17.30
2014,08,19,02,11,17.30
2014,08,19,02,12,17.30
2014,08,19,02,13,17.30
2014,08,19,02,14,17.30
2014,08,19,02,15,17.30
2014,08,19,02,16,17.20
2014,08,19,02,17,17.20
2014,08,19,02,18,17.20
2014,08,19,02,19,17.20
2014,08,19,02,20,17.20
2014,08,19,02,21,17.20
2014,08,19,02,22,17.20
2014,08,19,02,23,17.20
2014,08,19,02,24,17.20
2014,08,19,02,25,17.20
2014,08,19,02,26,17.10
2014,08,19,02,27,17.10
2014,08,19,02,28,17.10
2014,08,19,02,29,17.10
2014,08,19,02,30,17.10
2014,08,19,02,31,17.10
2014,08,19,02,32,17.10
2014,08,19,02,33,17.10
2014,08,19,02,34,17.10
2014,08,19,02,35,17.10
2014,08,19,02,36,17.10
2014,08,19,02,37,17.00
2014,08,19,02,38,17.00
2014,08,19,02,39,17.00
2014,08,19,02,40,17.00
2014,08,19,02,41,17.00
2014,08,19,02,42,17.00
2014,08,19,02,43,17.00
2014,08,19,02,44,17.00
2014,08,19,02,45,17.00
2014,08,19,02,46,16.90
2014,08,19,02,47,16.90
2014,08,19,02,48,16.90
2014,08,19,02,49,16.90
2014,08,19,02,50,16.90
2014,08,19,02,51,16.90
2014,08,19,02,52,16.90
2014,08,19,02,53,16.90
2014,08,19,02,54,16.90
2014,08,19,02,55,16.90
2014,08,19,02,56,16.90
2014,08,19,02,57,16.80
2014,08,19,02,58,16.80
2014,08,19,02,59,16.80
2014,08,19,03,00,16.80
2014,08,19,03,01,16.80
2014,08,19,03,02,16.80
2014,08,19,03,03,16.80
2014,08,19,03,04,16.70
2014,08,19,03,05,16.70
2014,08,19,03,06,16.70
2014,08,19,03,07,16.60
2014,08,19,03,08,16.60
2014,08,19,03,09,16.60
2014,08,19,03,10,16.60
2014,08,19,03,11,16.50
2014,08,19,03,12,16.50
2014,08,19,03,13,16.40
2014,08,19,03,14,16.40
2014,08,19,03,15,16.40
2014,08,19,03,16,16.30
2014,08,19,03,17,16.30
2014,08,19,03,18,16.30
2014,08,19,03,19,16.30
2014,08,19,03,20,16.30
2014,08,19,03,21,16.30
2014,08,19,03,22,16.30
2014,08,19,03,23,16.20
2014,08,19,03,24,16.20
2014,08,19,03,25,16.20
2014,08,19,03,26,16.20
2014,08,19,03,27,16.20
2014,08,19,03,28,16.10
2014,08,19,03,29,16.10
2014,08,19,03,30,16.10
2014,08,19,03,31,16.00
2014,08,19,03,32,16.00
2014,08,19,03,33,15.90
2014,08,19,03,34,15.90
2014,08,19,03,35,15.90
2014,08,19,03,36,15.90
2014,08,19,03,37,15.90
2014,08,19,03,38,15.80
2014,08,19,03,39,15.80
2014,08,19,03,40,15.80
2014,08,19,03,41,15.80
2014,08,19,03,42,15.80
2014,08,19,03,43,15.80
2014,08,19,03,44,15.80
2014,08,19,03,45,15.80
2014,08,19,03,46,15.80
2014,08,19,03,47,15.70
2014,08,19,03,48,15.70
2014,08,19,03,49,15.70
2014,08,19,03,50,15.70
2014,08,19,03,51,15.70
2014,08,19,03,52,15.70
2014,08,19,03,53,15.70
2014,08,19,03,54,15.60
2014,08,19,03,55,15.60
2014,08,19,03,56,15.60
2014,08,19,03,57,15.60
2014,08,19,03,58,15.60
2014,08,19,03,59,15.60
2014,08,19,04,00,15.60
2014,08,19,04,01,15.60
2014,08,19,04,02,15.60
2014,08,19,04,03,15.60
2014,08,19,04,04,15.50
2014,08,19,04,05,15.50
2014,08,19,04,06,15.50
2014,08,19,04,07,15.50
2014,08,19,04,08,15.50
2014,08,19,04,09,15.50
2014,08,19,04,10,15.50
2014,08,19,04,11,15.50
2014,08,19,04,12,15.50
2014,08,19,04,13,15.50
2014,08,19,04,14,15.50
2014,08,19,04,15,15.50
2014,08,19,04,16,15.50
2014,08,19,04,17,15.40
2014,08,19,04,18,15.40
2014,08,19,04,19,15.40
2014,08,19,04,20,15.40
2014,08,19,04,21,15.40
2014,08,19,04,22,15.40
2014,08,19,04,23,15.30
2014,08,19,04,24,15.30
2014,08,19,04,25,15.30
2014,08,19,04,26,15.30
2014,08,19,04,27,15.30
2014,08,19,04,28,15.30
2014,08,19,04,29,15.30
2014,08,19,04,30,15.30
2014,08,19,04,31,15.30
2014,08,19,04,32,15.30
2014,08,19,04,33,15.30
2014,08,19,04,34,15.30
2014,08,19,04,35,15.30
2014,08,19,04,36,15.30
2014,08,19,04,37,15.30
2014,08,19,04,38,15.20
2014,08,19,04,39,15.20
2014,08,19,04,40,15.20
2014,08,19,04,41,15.20
2014,08,19,04,42,15.20
2014,08,19,04,43,15.20
2014,08,19,04,44,15.20
2014,08,19,04,45,15.20
2014,08,19,04,46,15.10
2014,08,19,04,47,15.10
2014,08,19,04,48,15.10
2014,08,19,04,49,15.10
2014,08,19,04,50,15.10
2014,08,19,04,51,15.10
2014,08,19,04,52,15.10
2014,08,19,04,53,15.10
2014,08,19,04,54,15.10
2014,08,19,04,55,15.10
2014,08,19,04,56,15.10
2014,08,19,04,57,15.10
2014,08,19,04,58,15.10
2014,08,19,04,59,15.10
2014,08,19,05,00,15.10
2014,08,19,05,01,15.10
2014,08,19,05,02,15.10
2014,08,19,05,03,15.10
2014,08,19,05,04,15.10
2014,08,19,05,05,15.00
2014,08,19,05,06,15.00
2014,08,19,05,07,15.00
2014,08,19,05,08,15.00
2014,08,19,05,09,14.90
2014,08,19,05,10,14.90
2014,08,19,05,11,14.90
2014,08,19,05,12,14.90
2014,08,19,05,13,14.90
2014,08,19,05,14,14.80
2014,08,19,05,15,14.80
2014,08,19,05,16,14.80
2014,08,19,05,17,14.80
2014,08,19,05,18,14.70
2014,08,19,05,19,14.70
2014,08,19,05,20,14.60
2014,08,19,05,21,14.60
2014,08,19,05,22,14.50
2014,08,19,05,23,14.50
2014,08,19,05,24,14.40
2014,08,19,05,25,14.40
2014,08,19,05,26,14.30
2014,08,19,05,27,14.30
2014,08,19,05,28,14.30
2014,08,19,05,29,14.20
2014,08,19,05,30,14.20
2014,08,19,05,31,14.20
2014,08,19,05,32,14.10
2014,08,19,05,33,14.10
2014,08,19,05,34,14.10
2014,08,19,05,35,14.00
2014,08,19,05,36,14.00
2014,08,19,05,37,13.90
2014,08,19,05,38,13.90
2014,08,19,05,39,13.90
2014,08,19,05,40,13.80
2014,08,19,05,41,13.80
2014,08,19,05,42,13.80
2014,08,19,05,43,13.70
2014,08,19,05,44,13.70
2014,08,19,05,45,13.70
2014,08,19,05,46,13.70
2014,08,19,05,47,13.70
2014,08,19,05,48,13.70
2014,08,19,05,49,13.70
2014,08,19,05,50,13.70
2014,08,19,05,51,13.70
2014,08,19,05,52,13.60
2014,08,19,05,53,13.60
2014,08,19,05,54,13.60
2014,08,19,05,55,13.60
2014,08,19,05,56,13.60
2014,08,19,05,57,13.60
2014,08,19,05,58,13.60
2014,08,19,05,59,13.60
2014,08,19,06,00,13.60
2014,08,19,06,01,13.50
2014,08,19,06,02,13.50
2014,08,19,06,03,13.50
2014,08,19,06,04,13.40
2014,08,19,06,05,13.40
2014,08,19,06,06,13.40
2014,08,19,06,07,13.40
2014,08,19,06,08,13.40
2014,08,19,06,09,13.40
2014,08,19,06,10,13.40
2014,08,19,06,11,13.40
2014,08,19,06,12,13.40
2014,08,19,06,13,13.40
2014,08,19,06,14,13.40
2014,08,19,06,15,13.40
2014,08,19,06,16,13.40
2014,08,19,06,17,13.40
2014,08,19,06,18,13.40
2014,08,19,06,19,13.40
2014,08,19,06,20,13.40
2014,08,19,06,21,13.30
2014,08,19,06,22,13.30
2014,08,19,06,23,13.30
2014,08,19,06,24,13.30
2014,08,19,06,25,13.30
2014,08,19,06,26,13.30
2014,08,19,06,27,13.30
2014,08,19,06,28,13.30
2014,08,19,06,29,13.30
2014,08,19,06,30,13.30
2014,08,19,06,31,13.20
2014,08,19,06,32,13.20
2014,08,19,06,33,13.20
2014,08,19,06,34,13.20
2014,08,19,06,35,13.20
2014,08,19,06,36,13.20
2014,08,19,06,37,13.20
2014,08,19,06,38,13.20
2014,08,19,06,39,13.20
2014,08,19,06,40,13.20
2014,08,19,06,41,13.20
2014,08,19,06,42,13.20
2014,08,19,06,43,13.20
2014,08,19,06,44,13.20
2014,08,19,06,45,13.20
2014,08,19,06,46,13.20
2014,08,19,06,47,13.20
2014,08,19,06,48,13.20
2014,08,19,06,49,13.20
2014,08,19,06,50,13.20
2014,08,19,06,51,13.20
2014,08,19,06,52,13.20
2014,08,19,06,53,13.20
2014,08,19,06,54,13.20
2014,08,19,06,55,13.20
2014,08,19,06,56,13.20
2014,08,19,06,57,13.20
2014,08,19,06,58,13.20
2014,08,19,06,59,13.20
2014,08,19,07,00,13.20
2014,08,19,07,01,13.20
2014,08,19,07,02,13.20
2014,08,19,07,03,13.20
2014,08,19,07,04,13.20
2014,08,19,07,05,13.20
2014,08,19,07,06,13.20
2014,08,19,07,07,13.20
2014,08,19,07,08,13.20
2014,08,19,07,09,13.20
2014,08,19,07,10,13.20
2014,08,19,07,11,13.20
2014,08,19,07,12,13.20
2014,08,19,07,13,13.20
2014,08,19,07,14,13.30
2014,08,19,07,15,13.30
2014,08,19,07,16,13.30
2014,08,19,07,17,13.30
2014,08,19,07,18,13.30
2014,08,19,07,19,13.30
2014,08,19,07,20,13.30
2014,08,19,07,21,13.30
2014,08,19,07,22,13.40
2014,08,19,07,23,13.40
2014,08,19,07,24,13.40
2014,08,19,07,25,13.40
2014,08,19,07,26,13.40
2014,08,19,07,27,13.50
2014,08,19,07,28,13.50
2014,08,19,07,29,13.60
2014,08,19,07,30,13.60
2014,08,19,07,31,13.60
2014,08,19,07,32,13.70
2014,08,19,07,33,13.70
2014,08,19,07,34,13.70
2014,08,19,07,35,13.70
2014,08,19,07,36,13.80
2014,08,19,07,37,13.80
2014,08,19,07,38,13.80
2014,08,19,07,39,13.80
2014,08,19,07,40,13.80
2014,08,19,07,41,13.90
2014,08,19,07,42,13.90
2014,08,19,07,43,13.90
2014,08,19,07,44,14.00
2014,08,19,07,45,14.00
2014,08,19,07,46,14.00
2014,08,19,07,47,14.10
2014,08,19,07,48,14.10
2014,08,19,07,49,14.10
2014,08,19,07,50,14.10
2014,08,19,07,51,14.10
2014,08,19,07,52,14.20
2014,08,19,07,53,14.20
2014,08,19,07,54,14.20
2014,08,19,07,55,14.20
2014,08,19,07,56,14.20
2014,08,19,07,57,14.20
2014,08,19,07,58,14.20
2014,08,19,07,59,14.20
2014,08,19,08,00,14.30
2014,08,19,08,01,14.30
2014,08,19,08,02,14.30
2014,08,19,08,03,14.30
2014,08,19,08,04,14.30
2014,08,19,08,05,14.30
2014,08,19,08,06,14.30
2014,08,19,08,07,14.40
2014,08,19,08,08,14.40
2014,08,19,08,09,14.40
2014,08,19,08,10,14.40
2014,08,19,08,11,14.40
2014,08,19,08,12,14.50
2014,08,19,08,13,14.50
2014,08,19,08,14,14.60
2014,08,19,08,15,14.60
2014,08,19,08,16,14.70
2014,08,19,08,17,14.70
2014,08,19,08,18,14.80
2014,08,19,08,19,14.80
2014,08,19,08,20,14.90
2014,08,19,08,21,15.00
2014,08,19,08,22,15.00
2014,08,19,08,23,15.10
2014,08,19,08,24,15.10
2014,08,19,08,25,15.20
2014,08,19,08,26,15.20
2014,08,19,08,27,15.20
2014,08,19,08,28,15.20
2014,08,19,08,29,15.20
2014,08,19,08,30,15.30
2014,08,19,08,31,15.30
2014,08,19,08,32,15.30
2014,08,19,08,33,15.30
2014,08,19,08,34,15.40
2014,08,19,08,35,15.40
2014,08,19,08,36,15.50
2014,08,19,08,37,15.60
2014,08,19,08,38,15.60
2014,08,19,08,39,15.70
2014,08,19,08,40,15.80
2014,08,19,08,41,15.90
2014,08,19,08,42,16.00
2014,08,19,08,43,16.10
2014,08,19,08,44,16.20
2014,08,19,08,45,16.30
2014,08,19,08,46,16.40
2014,08,19,08,47,16.50
2014,08,19,08,48,16.70
2014,08,19,08,49,16.70
2014,08,19,08,50,16.80
2014,08,19,08,51,16.90
2014,08,19,08,52,16.90
2014,08,19,08,53,17.00
2014,08,19,08,54,17.00
2014,08,19,08,55,17.10
2014,08,19,08,56,17.10
2014,08,19,08,57,17.10
2014,08,19,08,58,17.10
2014,08,19,08,59,17.10
2014,08,19,09,00,17.20
2014,08,19,09,01,17.20
2014,08,19,09,02,17.20
2014,08,19,09,03,17.30
2014,08,19,09,04,17.30
2014,08,19,09,05,17.30
2014,08,19,09,06,17.40
2014,08,19,09,07,17.40
2014,08,19,09,08,17.40
2014,08,19,09,09,17.40
2014,08,19,09,10,17.40
2014,08,19,09,11,17.50
2014,08,19,09,12,17.40
2014,08,19,09,13,17.40
2014,08,19,09,14,17.40
2014,08,19,09,15,17.40
2014,08,19,09,16,17.30
2014,08,19,09,17,17.30
2014,08,19,09,18,17.30
2014,08,19,09,19,17.30
2014,08,19,09,20,17.30
2014,08,19,09,21,17.30
2014,08,19,09,22,17.30
2014,08,19,09,23,17.30
2014,08,19,09,24,17.30
2014,08,19,09,25,17.30
2014,08,19,09,26,17.40
2014,08,19,09,27,17.40
2014,08,19,09,28,17.40
2014,08,19,09,29,17.50
2014,08,19,09,30,17.50
2014,08,19,09,31,17.60
2014,08,19,09,32,17.70
2014,08,19,09,33,17.70
2014,08,19,09,34,17.70
2014,08,19,09,35,17.70
2014,08,19,09,36,17.70
2014,08,19,09,37,17.80
2014,08,19,09,38,17.80
2014,08,19,09,39,17.80
2014,08,19,09,40,17.80
2014,08,19,09,41,17.90
2014,08,19,09,42,17.90
2014,08,19,09,43,18.00
2014,08,19,09,44,18.10
2014,08,19,09,45,18.20
2014,08,19,09,46,18.20
2014,08,19,09,47,18.30
2014,08,19,09,48,18.40
2014,08,19,09,49,18.50
2014,08,19,09,50,18.50
2014,08,19,09,51,18.70
2014,08,19,09,52,18.80
2014,08,19,09,53,18.90
2014,08,19,09,54,19.00
2014,08,19,09,55,19.10
2014,08,19,09,56,19.20
2014,08,19,09,57,19.20
2014,08,19,09,58,19.30
2014,08,19,09,59,19.30
2014,08,19,10,00,19.40
2014,08,19,10,01,19.40
2014,08,19,10,02,19.50
2014,08,19,10,03,19.50
2014,08,19,10,04,19.60
2014,08,19,10,05,19.60
2014,08,19,10,06,19.70
2014,08,19,10,07,19.70
2014,08,19,10,08,19.70
2014,08,19,10,09,19.70
2014,08,19,10,10,19.80
2014,08,19,10,11,19.70
2014,08,19,10,12,19.70
2014,08,19,10,13,19.70
2014,08,19,10,14,19.80
2014,08,19,10,15,19.90
2014,08,19,10,16,19.90
2014,08,19,10,17,20.00
2014,08,19,10,18,20.10
2014,08,19,10,19,20.10
2014,08,19,10,20,20.20
2014,08,19,10,21,20.20
2014,08,19,10,22,20.20
2014,08,19,10,23,20.30
2014,08,19,10,24,20.30
2014,08,19,10,25,20.30
2014,08,19,10,26,20.30
2014,08,19,10,27,20.20
2014,08,19,10,28,20.30
2014,08,19,10,29,20.30
2014,08,19,10,30,20.30
2014,08,19,10,31,20.40
2014,08,19,10,32,20.40
2014,08,19,10,33,20.40
2014,08,19,10,34,20.40
2014,08,19,10,35,20.30
2014,08,19,10,36,20.30
2014,08,19,10,37,20.30
2014,08,19,10,38,20.20
2014,08,19,10,39,20.20
2014,08,19,10,40,20.20
2014,08,19,10,41,20.20
2014,08,19,10,42,20.30
2014,08,19,10,43,20.30
2014,08,19,10,44,20.40
2014,08,19,10,45,20.40
2014,08,19,10,46,20.40
2014,08,19,10,47,20.40
2014,08,19,10,48,20.30
2014,08,19,10,49,20.20
2014,08,19,10,50,20.10
2014,08,19,10,51,20.00
2014,08,19,10,52,19.90
2014,08,19,10,53,19.90
2014,08,19,10,54,19.80
2014,08,19,10,55,19.90
2014,08,19,10,56,19.90
2014,08,19,10,57,19.90
2014,08,19,10,58,19.90
2014,08,19,10,59,19.90
2014,08,19,11,00,20.00
2014,08,19,11,01,20.00
2014,08,19,11,02,20.00
2014,08,19,11,03,20.00
2014,08,19,11,04,20.00
2014,08,19,11,05,20.00
2014,08,19,11,06,20.00
2014,08,19,11,07,20.00
2014,08,19,11,08,19.90
2014,08,19,11,09,19.90
2014,08,19,11,10,19.80
2014,08,19,11,11,19.80
2014,08,19,11,12,19.90
2014,08,19,11,13,19.90
2014,08,19,11,14,19.90
2014,08,19,11,15,19.90
2014,08,19,11,16,19.90
2014,08,19,11,17,19.80
2014,08,19,11,18,19.90
2014,08,19,11,19,19.90
2014,08,19,11,20,19.90
2014,08,19,11,21,19.90
2014,08,19,11,22,20.00
2014,08,19,11,23,20.00
2014,08,19,11,24,20.10
2014,08,19,11,25,20.10
2014,08,19,11,26,20.20
2014,08,19,11,27,20.30
2014,08,19,11,28,20.40
2014,08,19,11,29,20.40
2014,08,19,11,30,20.40
2014,08,19,11,31,20.40
2014,08,19,11,32,20.40
2014,08,19,11,33,20.40
2014,08,19,11,34,20.40
2014,08,19,11,35,20.50
2014,08,19,11,36,20.50
2014,08,19,11,37,20.60
2014,08,19,11,38,20.70
2014,08,19,11,39,20.70
2014,08,19,11,40,20.80
2014,08,19,11,41,20.80
2014,08,19,11,42,20.80
2014,08,19,11,43,20.80
2014,08,19,11,44,20.80
2014,08,19,11,45,20.80
2014,08,19,11,46,20.90
2014,08,19,11,47,20.90
2014,08,19,11,48,21.00
2014,08,19,11,49,21.00
2014,08,19,11,50,21.10
2014,08,19,11,51,21.10
2014,08,19,11,52,21.20
2014,08,19,11,53,21.20
2014,08,19,11,54,21.20
2014,08,19,11,55,21.30
2014,08,19,11,56,21.20
2014,08,19,11,57,21.10
2014,08,19,11,58,21.00
2014,08,19,11,59,21.00
2014,08,19,12,00,21.00
2014,08,19,12,01,21.00
2014,08,19,12,02,21.00
2014,08,19,12,03,21.00
2014,08,19,12,04,21.10
2014,08,19,12,05,21.00
2014,08,19,12,06,21.00
2014,08,19,12,07,21.10
2014,08,19,12,08,21.10
2014,08,19,12,09,21.10
2014,08,19,12,10,21.10
2014,08,19,12,11,21.10
2014,08,19,12,12,21.10
2014,08,19,12,13,21.20
2014,08,19,12,14,21.20
2014,08,19,12,15,21.30
2014,08,19,12,16,21.30
2014,08,19,12,17,21.20
2014,08,19,12,18,21.20
2014,08,19,12,19,21.30
2014,08,19,12,20,21.30
2014,08,19,12,21,21.30
2014,08,19,12,22,21.30
2014,08,19,12,23,21.20
2014,08,19,12,24,21.20
2014,08,19,12,25,21.20
2014,08,19,12,26,21.20
2014,08,19,12,27,21.20
2014,08,19,12,28,21.20
2014,08,19,12,29,21.20
2014,08,19,12,30,21.20
2014,08,19,12,31,21.20
2014,08,19,12,32,21.30
2014,08,19,12,33,21.30
2014,08,19,12,34,21.30
2014,08,19,12,35,21.30
2014,08,19,12,36,21.40
2014,08,19,12,37,21.40
2014,08,19,12,38,21.30
2014,08,19,12,39,21.30
2014,08,19,12,40,21.20
2014,08,19,12,41,21.10
2014,08,19,12,42,21.10
2014,08,19,12,43,21.10
2014,08,19,12,44,21.00
2014,08,19,12,45,20.90
2014,08,19,12,46,20.80
2014,08,19,12,47,20.80
2014,08,19,12,48,20.70
2014,08,19,12,49,20.60
2014,08,19,12,50,20.60
2014,08,19,12,51,20.50
2014,08,19,12,52,20.40
2014,08,19,12,53,20.40
2014,08,19,12,54,20.40
2014,08,19,12,55,20.40
2014,08,19,12,56,20.40
2014,08,19,12,57,20.40
2014,08,19,12,58,20.40
2014,08,19,12,59,20.40
2014,08,19,13,00,20.40
2014,08,19,13,01,20.40
2014,08,19,13,02,20.40
2014,08,19,13,03,20.40
2014,08,19,13,04,20.40
2014,08,19,13,05,20.40
2014,08,19,13,06,20.40
2014,08,19,13,07,20.50
2014,08,19,13,08,20.50
2014,08,19,13,09,20.60
2014,08,19,13,10,20.60
2014,08,19,13,11,20.60
2014,08,19,13,12,20.60
2014,08,19,13,13,20.60
2014,08,19,13,14,20.60
2014,08,19,13,15,20.60
2014,08,19,13,16,20.60
2014,08,19,13,17,20.70
2014,08,19,13,18,20.70
2014,08,19,13,19,20.70
2014,08,19,13,20,20.70
2014,08,19,13,21,20.70
2014,08,19,13,22,20.80
2014,08,19,13,23,20.80
2014,08,19,13,24,21.00
2014,08,19,13,25,21.00
2014,08,19,13,26,21.10
2014,08,19,13,27,21.10
2014,08,19,13,28,21.30
2014,08,19,13,29,21.30
2014,08,19,13,30,21.40
2014,08,19,13,31,21.40
2014,08,19,13,32,21.30
2014,08,19,13,33,21.30
2014,08,19,13,34,21.40
2014,08,19,13,35,21.30
2014,08,19,13,36,21.30
2014,08,19,13,37,21.30
2014,08,19,13,38,21.30
2014,08,19,13,39,21.30
2014,08,19,13,40,21.40
2014,08,19,13,41,21.50
2014,08,19,13,42,21.60
2014,08,19,13,43,21.60
2014,08,19,13,44,21.70
2014,08,19,13,45,21.80
2014,08,19,13,46,21.90
2014,08,19,13,47,21.90
2014,08,19,13,48,22.00
2014,08,19,13,49,22.00
2014,08,19,13,50,22.00
2014,08,19,13,51,22.00
2014,08,19,13,52,22.00
2014,08,19,13,53,21.90
2014,08,19,13,54,21.80
2014,08,19,13,55,21.70
2014,08,19,13,56,21.60
2014,08,19,13,57,21.50
2014,08,19,13,58,21.40
2014,08,19,13,59,21.40
2014,08,19,14,00,21.40
2014,08,19,14,01,21.40
2014,08,19,14,02,21.40
2014,08,19,14,03,21.40
2014,08,19,14,04,21.40
2014,08,19,14,05,21.40
2014,08,19,14,06,21.50
2014,08,19,14,07,21.50
2014,08,19,14,08,21.50
2014,08,19,14,09,21.50
2014,08,19,14,10,21.50
2014,08,19,14,11,21.50
2014,08,19,14,12,21.50
2014,08,19,14,13,21.60
2014,08,19,14,14,21.60
2014,08,19,14,15,21.70
2014,08,19,14,16,21.70
2014,08,19,14,17,21.70
2014,08,19,14,18,21.70
2014,08,19,14,19,21.70
2014,08,19,14,20,21.70
2014,08,19,14,21,21.70
2014,08,19,14,22,21.70
2014,08,19,14,23,21.80
2014,08,19,14,24,21.90
2014,08,19,14,25,21.90
2014,08,19,14,26,21.80
2014,08,19,14,27,21.90
2014,08,19,14,28,21.80
2014,08,19,14,29,21.80
2014,08,19,14,30,21.80
2014,08,19,14,31,21.80
2014,08,19,14,32,21.70
2014,08,19,14,33,21.70
2014,08,19,14,34,21.70
2014,08,19,14,35,21.60
2014,08,19,14,36,21.60
2014,08,19,14,37,21.60
2014,08,19,14,38,21.70
2014,08,19,14,39,21.70
2014,08,19,14,40,21.70
2014,08,19,14,41,21.70
2014,08,19,14,42,21.70
2014,08,19,14,43,21.70
2014,08,19,14,44,21.70
2014,08,19,14,45,21.70
2014,08,19,14,46,21.70
2014,08,19,14,47,21.70
2014,08,19,14,48,21.80
2014,08,19,14,49,21.80
2014,08,19,14,50,21.80
2014,08,19,14,51,21.80
2014,08,19,14,52,21.80
2014,08,19,14,53,21.80
2014,08,19,14,54,21.80
2014,08,19,14,55,21.80
2014,08,19,14,56,21.80
2014,08,19,14,57,21.90
2014,08,19,14,58,21.90
2014,08,19,14,59,22.00
2014,08,19,15,00,22.00
2014,08,19,15,01,22.00
2014,08,19,15,02,22.10
2014,08,19,15,03,22.10
2014,08,19,15,04,22.20
2014,08,19,15,05,22.20
2014,08,19,15,06,22.30
2014,08,19,15,07,22.30
2014,08,19,15,08,22.40
2014,08,19,15,09,22.50
2014,08,19,15,10,22.50
2014,08,19,15,11,22.60
2014,08,19,15,12,22.60
2014,08,19,15,13,22.60
2014,08,19,15,14,22.60
2014,08,19,15,15,22.70
2014,08,19,15,16,22.80
2014,08,19,15,17,22.90
2014,08,19,15,18,23.00
2014,08,19,15,19,23.00
2014,08,19,15,20,23.00
2014,08,19,15,21,23.00
2014,08,19,15,22,23.10
2014,08,19,15,23,23.10
2014,08,19,15,24,23.10
2014,08,19,15,25,23.20
2014,08,19,15,26,23.20
2014,08,19,15,27,23.20
2014,08,19,15,28,23.30
2014,08,19,15,29,23.30
2014,08,19,15,30,23.20
2014,08,19,15,31,23.20
2014,08,19,15,32,23.20
2014,08,19,15,33,23.20
2014,08,19,15,34,23.20
2014,08,19,15,35,23.20
2014,08,19,15,36,23.20
2014,08,19,15,37,23.30
2014,08,19,15,38,23.30
2014,08,19,15,39,23.40
2014,08,19,15,40,23.40
2014,08,19,15,41,23.50
2014,08,19,15,42,23.50
2014,08,19,15,43,23.50
2014,08,19,15,44,23.60
2014,08,19,15,45,23.60
2014,08,19,15,46,23.60
2014,08,19,15,47,23.60
2014,08,19,15,48,23.60
2014,08,19,15,49,23.60
2014,08,19,15,50,23.50
2014,08,19,15,51,23.50
2014,08,19,15,52,23.60
2014,08,19,15,53,23.60
2014,08,19,15,54,23.60
2014,08,19,15,55,23.60
2014,08,19,15,56,23.70
2014,08,19,15,57,23.80
2014,08,19,15,58,23.80
2014,08,19,15,59,23.80
2014,08,19,16,00,23.80
2014,08,19,16,01,23.80
2014,08,19,16,02,23.90
2014,08,19,16,03,23.90
2014,08,19,16,04,23.90
2014,08,19,16,05,23.90
2014,08,19,16,06,23.90
2014,08,19,16,07,23.90
2014,08,19,16,08,23.80
2014,08,19,16,09,23.80
2014,08,19,16,10,23.80
2014,08,19,16,11,23.70
2014,08,19,16,12,23.70
2014,08,19,16,13,23.60
2014,08,19,16,14,23.60
2014,08,19,16,15,23.50
2014,08,19,16,16,23.50
2014,08,19,16,17,23.50
2014,08,19,16,18,23.50
2014,08,19,16,19,23.40
2014,08,19,16,20,23.30
2014,08,19,16,21,23.20
2014,08,19,16,22,23.20
2014,08,19,16,23,23.20
2014,08,19,16,24,23.20
2014,08,19,16,25,23.20
2014,08,19,16,26,23.20
2014,08,19,16,27,23.20
2014,08,19,16,28,23.20
2014,08,19,16,29,23.10
2014,08,19,16,30,23.10
2014,08,19,16,31,23.10
2014,08,19,16,32,23.10
2014,08,19,16,33,23.10
2014,08,19,16,34,23.00
2014,08,19,16,35,22.90
2014,08,19,16,36,22.90
2014,08,19,16,37,22.90
2014,08,19,16,38,22.90
2014,08,19,16,39,22.80
2014,08,19,16,40,22.80
2014,08,19,16,41,22.80
2014,08,19,16,42,22.80
2014,08,19,16,43,22.70
2014,08,19,16,44,22.70
2014,08,19,16,45,22.70
2014,08,19,16,46,22.70
2014,08,19,16,47,22.70
2014,08,19,16,48,22.70
2014,08,19,16,49,22.70
2014,08,19,16,50,22.70
2014,08,19,16,51,22.70
2014,08,19,16,52,22.70
2014,08,19,16,53,22.70
2014,08,19,16,54,22.70
2014,08,19,16,55,22.70
2014,08,19,16,56,22.70
2014,08,19,16,57,22.70
2014,08,19,16,58,22.70
2014,08,19,16,59,22.60
2014,08,19,17,00,22.70
2014,08,19,17,01,22.70
2014,08,19,17,02,22.70
2014,08,19,17,03,22.60
2014,08,19,17,04,22.60
2014,08,19,17,05,22.60
2014,08,19,17,06,22.60
2014,08,19,17,07,22.60
2014,08,19,17,08,22.60
2014,08,19,17,09,22.60
2014,08,19,17,10,22.60
2014,08,19,17,11,22.60
2014,08,19,17,12,22.60
2014,08,19,17,13,22.60
2014,08,19,17,14,22.50
2014,08,19,17,15,22.50
2014,08,19,17,16,22.50
2014,08,19,17,17,22.40
2014,08,19,17,18,22.40
2014,08,19,17,19,22.30